This is the latest recevied weather packets stored in our database for station/object W3JGB. If no packets are shown the sender has not sent any weather packets the latest 10 day(s).
| Time | Temp. | Humidity | Pressure | Rain* | Wind** | Luminosity | Snow |
|---|---|---|---|---|---|---|---|
| 1777649636 | 13.89° C | 47% | 1012.4 hPa | 0 mm | - | 193 W/m² | - |
| 1777649332 | 13.89° C | 48% | 1012.5 hPa | 0 mm | - | 291 W/m² | - |
| 1777649029 | 13.33° C | 52% | 1012.6 hPa | 0 mm | - | 191 W/m² | - |
| 1777648727 | 12.78° C | 47% | 1012.7 hPa | 0 mm | - | 410 W/m² | - |
| 1777648423 | 13.33° C | 47% | 1012.6 hPa | 0 mm | - | 66 W/m² | - |
| 1777648119 | 13.33° C | 50% | 1012.8 hPa | 0 mm | - | 65 W/m² | - |
| 1777647816 | 13.33° C | 44% | 1013.2 hPa | 0 mm | - | 368 W/m² | - |
| 1777647512 | 12.78° C | 43% | 1013.2 hPa | 0 mm | - | 519 W/m² | - |
| 1777647209 | 12.78° C | 50% | 1012.8 hPa | 0 mm | - | 318 W/m² | - |
| 1777646906 | 12.22° C | 45% | 1013.2 hPa | 0 mm | - | 273 W/m² | - |
| 1777646601 | 12.22° C | 52% | 1013.2 hPa | 0 mm | - | 454 W/m² | - |
| 1777646298 | 12.78° C | 51% | 1013.2 hPa | 0 mm | - | 505 W/m² | - |
| 1777645995 | 12.78° C | 50% | 1013.1 hPa | 0 mm | - | 390 W/m² | - |
| 1777645692 | 12.78° C | 54% | 1013.1 hPa | 0 mm | - | 288 W/m² | - |
| 1777645388 | 12.22° C | 52% | 1013.1 hPa | 0 mm | - | 489 W/m² | - |
| 1777645083 | 12.22° C | 51% | 1013.3 hPa | 0 mm | - | 407 W/m² | - |
| 1777644780 | 12.22° C | 47% | 1013.2 hPa | 0 mm | - | 324 W/m² | - |
| 1777644478 | 11.67° C | 47% | 1013.4 hPa | 0 mm | - | 75 W/m² | - |
| 1777644174 | 12.22° C | 48% | 1013.2 hPa | 0 mm | - | 364 W/m² | - |
| 1777643870 | 11.67° C | 54% | 1013.5 hPa | 0 mm | - | 191 W/m² | - |
| 1777643569 | 12.22° C | 55% | 1013.3 hPa | 0 mm | - | 366 W/m² | - |
| 1777643265 | 11.67° C | 54% | 1013.2 hPa | 0 mm | - | 627 W/m² | - |
| 1777642962 | 11.67° C | 57% | 1013.4 hPa | 0 mm | - | 473 W/m² | - |
| 1777642658 | 11.11° C | 58% | 1013.5 hPa | 0 mm | - | 528 W/m² | - |
| 1777642355 | 11.11° C | 60% | 1013.9 hPa | 0 mm | - | 425 W/m² | - |
* Rain latest hour (hover to see other rain measurements)
** Current wind speed in m/s (hover to see current wind gust speed)